Regional Weather Roundup
Issued by NWS

Home | Current Version | Previous Version | Graphics & Text | Print | Product List | Glossary On
Versions: 1 2 3 4 5 6 7 8 9 10 11 12 13 14 15 16 17 18 19 20 21 22 23 24 25 26 27 28 29 30 31 32 33 34 35 36 37 38 39 40 41 42 43 44 45 46 47 48 49 50
000
ASUS45 KABQ 052210
RWRNM
WEATHER ROUNDUP FOR NEW MEXICO
NATIONAL WEATHER SERVICE ALBUQUERQUE NM
400 PM MDT TUE MAY 05 2015

NOTE: "FAIR" MEANS FEW OR NO CLOUDS BELOW 12,000 FEET AGL WITH NO
       SIGNIFICANT WEATHER OR OBSTRUCTIONS TO VISION.

      THIS PRODUCT IS RELEASED AS TWO VERSIONS.  ONE VERSION NEAR
      THE TOP OF THE HOUR CONTAINING PRELIMINARY DATA FROM ALBUQUERQUE
      AND OTHER STATIONS.  A FINAL VERSION WITH ADDITIONAL DATA IS
      ISSUED ABOUT 10 MINUTES AFTER THE HOUR.

NMZ501-503-504-510>518-052300-
NORTHWEST PLATEAU/NORTHCENTRAL MOUNTAINS

CITY           SKY/WX    TMP DP  RH WIND       PRES   REMARKS
FARMINGTON     CLOUDY    55  47  74 S6        29.88F
LOS ALAMOS     PTSUNNY   51  41  66 W10G18    29.91S
SANTA FE       PTSUNNY   59  38  45 SW18G26   29.87F
TAOS           CLOUDY    54  36  50 SW15G23   29.90F
ANGEL FIRE     MOCLDY    47  38  70 W9        29.93F

$$
NMZ402-403-502-505>509-052300-
WESTCENTRAL MOUNTAINS/SOUTHWEST MOUNTAINS

CITY           SKY/WX    TMP DP  RH WIND       PRES   REMARKS
GALLUP         LGT RAIN  51  44  77 W13       29.95S
GRANTS         PTSUNNY   59  38  44 NW14G21   29.93F
SILVER CITY      N/A     68  36  30 W15G28    29.98F

$$
NMZ407-409-411-412-052300-
SOUTHERN DESERTS

CITY           SKY/WX    TMP DP  RH WIND       PRES   REMARKS
LORDSBURG      MOCLDY    73  36  25 W15G23    29.92F
DEMING         PTSUNNY   74  34  23 W16G26    29.91F
LAS CRUCES     PTSUNNY   75  32  20 SW17G24   29.91F
HOLLOMAN AFB   MOSUNNY   77  32  19 SW22G30   29.85F
ALAMOGORDO     PTSUNNY   73  32  21 SW16G23   29.88F
T OR C         MOSUNNY   74  33  22 SW15G25   29.86F

$$
NMZ519>523-052300-
CENTRAL VALLEYS/CENTRAL HIGHLANDS

CITY           SKY/WX    TMP DP  RH WIND       PRES   REMARKS
ALBUQUERQUE    TSTM      54  46  74 S15       29.91R
DOUBLE EAGLE   PTSUNNY   57  41  54 NW9G16    29.92S
MORIARTY ARPT  MOCLDY    59  39  47 SW15G25   29.92F
CLINES CORNERS MOSUNNY   57  36  45 W25G35    29.90F
BELEN          CLOUDY    58  44  61 S7        29.90F
SOCORRO        LGT RAIN  58  46  63 W3        29.89R

$$
NMZ524>526-539-540-052300-
SOUTHCENTRAL MOUNTAINS

CITY           SKY/WX    TMP DP  RH WIND       PRES   REMARKS
RUIDOSO        MOSUNNY   59  32  36 SW21G35   29.96F

$$
NMZ527>531-052300-
NORTHEAST HIGHLANDS/NORTHEAST PLAINS

CITY           SKY/WX    TMP DP  RH WIND       PRES   REMARKS
LAS VEGAS      PTSUNNY   60  38  43 W22G36    29.87S
RATON          LGT RAIN  51  41  68 NW8G21    29.81F
CLAYTON        CLOUDY    60  52  74 S16       29.80F

$$
NMZ532>537-052300-
EASTCENTRAL PLAINS

CITY           SKY/WX    TMP DP  RH WIND       PRES   REMARKS
TUCUMCARI      CLOUDY    60  51  72 SW13G20   29.81S
CANNON AFB     HVY RAIN  52  48  87 W23G38    29.88R
CLOVIS AIRPORT PTSUNNY   54  45  71 W35G53    29.87R THUNDER

$$
NMZ028-029-538-052300-
SOUTHEAST PLAINS

CITY           SKY/WX    TMP DP  RH WIND       PRES   REMARKS
ROSWELL        PTSUNNY   75  40  28 W12       29.79F
ARTESIA        SUNNY     79  32  18 SW26G33   29.82F
CARLSBAD       MOSUNNY   80  36  20 SW16      29.82F
HOBBS          PTSUNNY   75  43  31 SW16G23   29.85F


$$



USA.gov is the U.S. government's official web portal to all federal, state and local government web resources and services.